Location: Butte
(46.0040°N, 112.5340°W)
Time: 19:15:06
(UTC-06:00)

Daily predictions for brighter satellites

Satellite Brightness Start Highest point End
(mag) Time Altitude Azimuth Time Altitude Azimuth Time Altitude Azimuth
Cosmos 1536 3.3 20:42:10 10° SSW 20:46:08 67° W 20:50:10 10° N
Cosmos 2084 4.2 20:43:21 10° NNW 20:47:04 35° NE 20:50:56 10° ESE
Iridium 4 Rocket 4.2 20:43:16 10° NNE 20:47:52 31° ENE 20:52:06 10° SE
ALOS 2.3 20:46:06 10° SSE 20:50:47 79° ENE 20:55:29 10° N
Cosmos 2082 3.7 20:46:51 10° NNW 20:52:30 75° ENE 20:58:07 10° SSE
Cosmos 220 Rocket 4.4 20:48:46 10° N 20:52:49 43° ENE 20:56:50 10° SE
Meteor 1-5 Rocket 4.1 20:47:59 10° S 20:53:16 70° E 20:58:45 10° NNE
Cosmos 2297 Rocket 2.4 20:47:59 10° NNW 20:53:37 60° ENE 20:59:12 10° SE
RESURS DK-1 3.9 20:50:32 10° N 20:53:48 22° NE 20:57:02 10° E
Resurs 01 Rocket 3.2 20:54:54 10° SSW 20:59:04 39° W 21:03:15 10° NNW
USA 186 1.6 20:55:55 10° SSE 20:59:06 67° ENE 21:02:03 10° N
Cosmos 1934 Rocket 4.0 20:59:40 10° S 21:05:49 89° E 21:12:06 10° N
DELTA 2 R/B (1) 4.3 21:01:48 10° WSW 21:07:00 41° S 21:11:47 12° ESE
Cosmos 1544 Rocket 3.9 21:03:28 10° SSW 21:07:50 72° W 21:12:17 10° N
OTV 4 2.8 21:09:14 10° SW 21:10:46 13° SSW 21:12:18 10° SSE
ERS-1 Rocket 3.3 21:08:38 10° SE 21:13:27 49° ENE 21:18:18 10° N
NOSS 2-1 (D) 4.4 21:12:26 10° WSW 21:16:18 53° NW 21:20:54 10° NNE
Cosmos 1743 4.2 21:15:07 14° ESE 21:16:58 19° E 21:19:45 10° NE
NOSS 2-1 (C) 4.4 21:13:27 10° WSW 21:17:20 53° NW 21:21:56 10° NNE
Tiangong 1 1.5 21:14:53 10° WSW 21:17:53 45° S 21:19:53 18° ESE
Cosmos 1898 Rocket 3.7 21:13:49 10° NNW 21:19:04 56° ENE 21:23:45 13° SE
Lacrosse 5 2.1 21:18:23 10° NW 21:23:25 63° NE 21:27:19 17° ESE
EP 1 4.2 21:21:48 10° SW 21:24:16 83° NW 21:27:00 10° NE
BREEZE-M DEB (TANK) 1.6 21:25:14 10° WNW 21:27:15 63° NNE 21:29:28 18° E
Cosmos 1066 Rocket 4.4 21:21:41 10° N 21:27:16 58° ENE 21:32:46 11° SSE
Cosmos 1975 2.8 21:27:54 10° S 21:32:00 79° E 21:36:07 10° NNE
SPOT 5 3.6 21:30:12 17° SE 21:33:29 37° ENE 21:37:54 10° N
Cosmos 1697 Rocket 3.0 21:28:21 10° S 21:33:38 43° ESE 21:38:56 10° NE
Cosmos 2278 4.0 21:33:04 10° SSW 21:38:44 71° WNW 21:44:28 10° NNE
Lacrosse 5 rocket 2.2 21:35:20 10° WNW 21:38:47 36° SW 21:41:15 16° SSE
Cosmos 468 Rocket 4.1 21:34:01 10° S 21:38:54 48° ESE 21:43:50 10° NNE
H-2A R/B 4.4 21:35:52 10° SSW 21:39:25 34° W 21:43:04 10° NNW
SL-24 R/B - RUBIN 2 4.4 21:36:34 10° SSW 21:42:23 65° ESE 21:48:53 10° NE
Cosmos 841 Rocket 4.5 21:45:13 22° ESE 21:46:34 25° E 21:50:46 10° NE
CZ-4 DEB 3.1 21:44:01 14° S 21:46:35 61° W 21:49:43 10° NNW
Cosmos 1825 Rocket 3.8 21:43:02 10° N 21:47:22 49° ENE 21:49:37 25° SE
Cosmos 1814 Rocket 4.2 21:43:11 10° S 21:48:19 50° ESE 21:53:27 10° NNE
Cosmos 2173 Rocket 4.1 21:42:31 10° SSE 21:48:43 56° E 21:54:53 10° NNE
Cosmos 972 Rocket 4.4 21:45:00 10° NNW 21:50:50 78° ENE 21:55:50 18° SSE
Cosmos 2369 4.2 21:46:54 10° SW 21:52:31 63° WNW 21:58:13 10° NNE
USA 215 3.9 21:47:44 15° E 21:52:55 49° NNE 21:59:10 10° NW
ARGOS 3.9 21:53:43 24° ESE 21:56:04 35° ENE 22:00:55 10° N
Cosmos 1980 Rocket 2.6 21:51:02 10° S 21:56:15 40° ESE 22:01:33 10° NE
Cosmos 1953 Rocket 3.9 21:52:43 10° N 21:57:01 46° ENE 21:58:41 31° SE
Cosmos 2100 Rocket 3.9 21:54:34 10° S 22:00:50 75° E 22:07:04 10° NNE
H-2A R/B 1.8 22:00:47 29° SSE 22:02:49 79° ENE 22:06:59 10° NNW
Cosmos 2061 Rocket 3.9 21:58:47 10° S 22:05:04 73° E 22:11:19 10° NNE
Cosmos 1939 Rocket 3.3 22:02:42 17° S 22:05:45 62° W 22:09:54 10° NNW
Cosmos 1666 3.8 22:06:52 28° ENE 22:06:52 28° ENE 22:09:35 10° NNE
Terra 3.5 22:06:58 18° ENE 22:07:48 19° ENE 22:11:02 10° NNE
MetOp-B 4.1 22:09:52 29° SSE 22:12:39 73° ENE 22:18:00 10° N
deb Chang Zheng 4 3.5 22:09:27 10° NNE 22:13:56 76° ESE 22:16:53 21° S
Cosmos 1758 Rocket 3.5 22:11:39 10° N 22:16:00 62° ENE 22:17:04 46° SE
ASTEX 1 3.4 22:11:44 10° NNE 22:16:43 63° E 22:18:51 33° SSE
Cosmos 1500 4.2 22:13:30 10° SSW 22:17:08 46° WNW 22:20:48 10° N
Cosmos 2228 4.1 22:18:42 28° ENE 22:18:42 28° ENE 22:21:42 10° NNE
Nimbus 7 Rocket 4.4 22:14:39 10° NNE 22:20:45 79° ESE 22:26:50 10° SSW
Envisat 3.6 22:17:39 16° S 22:21:32 54° W 22:26:32 10° NNW
Cosmos 2227 Rocket 4.3 22:17:31 10° NW 22:21:42 22° W 22:25:52 10° SSW
Cosmos 2263 Rocket 3.4 22:17:06 10° N 22:21:48 27° NE 22:23:33 23° ENE
Meteor 1-21 4.2 22:16:16 10° N 22:22:04 90° W 22:25:15 29° S
Cosmos 1937 Rocket 3.9 22:18:38 10° NNW 22:23:49 60° WSW 22:26:43 26° S
Cosmos 1656 4.2 22:20:04 10° SW 22:25:36 59° WNW 22:31:06 10° NNE
Cosmos 1340 2.8 22:23:34 10° NNW 22:27:22 69° W 22:28:12 49° SSW
Cosmos 2322 Rocket 3.3 22:29:50 26° E 22:29:50 26° E 22:33:16 10° NE
H-2A R/B 2.7 22:29:30 33° E 22:30:08 35° ENE 22:34:36 10° N
RESURS DK-1 3.2 22:28:07 10° NW 22:32:04 44° WSW 22:33:15 34° SSW
Cosmos 1725 Rocket 4.0 22:32:31 36° SSE 22:35:01 62° E 22:41:10 10° NNE
Cosmos 1459 Rocket 4.2 22:29:32 10° SSW 22:35:32 66° W 22:41:39 10° N
YAOGAN 6 2.8 22:35:57 60° SW 22:36:22 66° W 22:40:04 10° NNW
Cosmos 2297 Rocket 4.2 22:32:55 10° NW 22:37:12 22° W 22:41:27 10° SSW
Cosmos 2360 4.2 22:35:01 34° S 22:37:26 60° ESE 22:43:05 10° NNE
Cosmos 405 Rocket 4.0 22:34:14 10° N 22:36:45 28° NE 22:36:45 28° NE
Cosmos 990 Rocket 4.3 22:32:39 10° NNW 22:37:50 60° WSW 22:39:55 35° S
CZ-4C R/B 4.4 22:38:28 37° ENE 22:38:28 37° ENE 22:42:26 10° N
Meteor 2-9 Rocket 4.1 22:37:50 45° SSE 22:39:24 66° E 22:44:46 10° NNE
Cosmos 2058 Rocket 3.0 22:40:43 66° SSE 22:41:16 77° E 22:45:48 10° NNE
CZ-4B R/B 3.4 22:37:27 10° NNE 22:41:58 53° E 22:41:58 53° E
Cosmos 2227 4.3 22:37:00 10° NNW 22:42:45 74° WSW 22:44:38 44° S
Cosmos 2098 Rocket 3.9 22:39:06 27° S 22:43:07 79° E 22:48:54 10° N
BREEZE-M DEB (TANK) 4.3 22:40:51 10° WNW 22:45:05 73° SSW 22:49:56 34° SE
BREEZE-M DEB (TANK) 4.3 22:37:04 10° SW 22:48:52 47° SSE 22:49:19 46° SE
SPOT 1/Viking Rocket 3.5 22:47:39 49° S 22:49:05 81° WSW 22:54:21 10° NNW
Cosmos 1606 Rocket 4.1 22:48:12 30° SW 22:50:07 56° WNW 22:54:31 10° N
Cosmos 836 Rocket 4.4 22:51:45 63° SE 22:52:10 66° ESE 22:57:26 10° NNE
Cosmos 1743 4.3 22:50:14 18° SW 22:52:34 34° WNW 22:56:11 10° N
Tiangong 1 3.9 22:51:22 10° WSW 22:51:51 13° WSW 22:51:51 13° WSW
SL-19 R/B 4.1 22:50:58 10° NNE 22:56:32 89° WNW 22:58:19 44° SSW
CARTOSAT-1 4.1 23:01:50 47° NE 23:01:50 47° NE 23:05:25 10° N
Cosmos 2233 Rocket 3.9 23:00:28 56° SE 23:01:19 62° E 23:07:27 10° NNE
Lacrosse 5 3.1 23:01:46 10° WNW 23:06:07 29° SW 23:06:31 29° SW
Cosmos 1763 Rocket 3.8 23:03:13 23° SW 23:06:21 61° WNW 23:11:24 10° NNE
Cosmos 1125 Rocket 3.4 23:02:11 10° NNW 23:07:25 80° WSW 23:07:50 73° SSW
SPOT 5 4.5 23:09:27 22° SW 23:11:35 29° W 23:15:49 10° NW
Cosmos 1697 Rocket 4.3 23:12:35 10° WSW 23:17:42 34° NW 23:22:50 10° NNE
SL-08 RB Rocket 4.2 23:17:46 54° WSW 23:17:55 54° W 23:22:30 10° NNW
SL-16 R/B 2.2 23:24:37 67° ENE 23:24:37 67° ENE 23:29:42 10° NNE
Cosmos 1707 4.4 23:23:53 10° N 23:26:01 29° N 23:26:01 29° N
Cosmos 841 Rocket 4.4 23:25:13 23° SW 23:28:09 47° WNW 23:33:12 10° NNE
Cosmos 1375 Rocket 4.4 23:28:35 72° SSE 23:28:59 75° ESE 23:35:35 10° NE
Landsat 7 4.2 23:30:02 59° W 23:30:02 59° W 23:34:29 10° NNW
Cosmos 332 Rocket 4.5 23:33:23 48° NNE 23:33:23 48° NNE 23:36:57 10° NNE
Cosmos 1844 Rocket 4.2 23:30:06 10° N 23:34:36 24° NE 23:35:07 24° ENE
USA 215 3.1 23:35:05 67° S 23:35:46 72° SW 23:42:19 10° NW
ARGOS 4.2 23:35:15 33° WSW 23:36:16 36° W 23:41:13 10° NNW
Cosmos 1980 Rocket 3.6 23:35:05 10° WSW 23:40:18 36° NW 23:45:35 10° NNE
Cosmos 2360 Rocket 3.6 23:43:12 26° NE 23:43:12 26° NE 23:45:53 10° NE
CZ-4 R/B 4.4 23:36:55 10° N 23:41:29 53° WNW 23:41:29 53° WNW
DMSP B5D2-2 4.2 23:36:18 10° NNE 23:40:53 68° NNE 23:40:53 68° NNE
Cosmos 1464 Rocket 4.2 23:45:10 61° ENE 23:45:10 61° ENE 23:50:57 10° NNE
Terra 2.4 23:45:51 53° WNW 23:45:51 53° WNW 23:49:49 10° NNW
Cosmos 540 Rocket 3.9 23:48:18 59° N 23:48:18 59° N 23:52:34 10° NNE
Meteor 2-5 Rocket 3.9 23:42:50 10° NNW 23:48:46 72° W 23:48:46 72° W
GP-B 4.3 23:50:05 10° N 23:53:14 42° NNW 23:53:14 42° NNW
BREEZE-M DEB (TANK) 4.1 23:48:33 10° W 23:53:35 37° W 23:53:35 37° W
